FW7930 Weather Reports


time (UTC)temp
C
wind
direction
speed
KPH
gust
KPH
rain 1hr
cm
rain 24hr
cm
rain mn
cm
humidity
%
barometer
mb
20260507101508 9 38 0.0 0.0 0.00 0.53 0.05 88 1010.9
20260507100009 10 38 0.0 0.0 0.00 0.53 0.05 89 1010.7
20260507094539 10 38 0.0 1.6 0.00 0.53 0.05 89 1010.8
20260507093036 10 36 0.0 4.8 0.00 0.53 0.05 90 1010.6
20260507091536 10 5 0.0 8.0 0.00 0.53 0.05 90 1010.8
20260507090027 10 22 0.0 4.8 0.00 0.53 0.05 91 1010.6
20260507084543 10 28 0.0 6.4 0.00 0.53 0.05 91 1010.3
20260507083026 10 34 1.6 6.4 0.00 0.53 0.05 91 1010.2
20260507080021 10 33 0.0 4.8 0.00 0.53 0.05 91 1009.8
20260507074520 10 32 0.0 0.0 0.00 0.53 0.05 90 1010.0
20260507073023 10 32 0.0 4.8 0.03 0.53 0.05 90 1009.7
20260507071517 10 39 1.6 4.8 0.05 0.53 0.05 90 1010.1
20260507070019 10 17 3.2 6.4 0.05 0.53 0.05 89 1010.3
20260507064512 11 30 1.6 4.8 0.05 0.53 0.05 88 1010.1
20260507063013 11 22 0.0 4.8 0.03 0.51 0.03 87 1010.3
20260507061507 11 355 1.6 12.9 0.00 0.48 0.00 87 1010.3
20260507060005 11 17 4.8 12.9 0.00 0.48 0.00 88 1010.1
20260507054503 11 30 3.2 6.4 0.00 0.48 0.00 89 1009.9
20260507053002 12 41 0.0 4.8 0.00 0.48 0.00 88 1010.0
20260507051608 12 48 0.0 8.0 0.00 0.48 0.00 88 1009.9
20260507050049 12 24 0.0 3.2 0.00 0.48 0.00 88 1010.4
20260507044531 12 15 0.0 12.9 0.00 0.48 0.48 87 1010.3
20260507043023 12 22 3.2 12.9 0.00 0.48 0.48 87 1009.8
20260507041520 12 12 1.6 9.7 0.05 0.48 0.48 87 1009.4
20260507040022 12 16 4.8 12.9 0.05 0.48 0.48 87 1009.7
20260507034516 13 15 0.0 6.4 0.05 0.48 0.48 88 1009.4
20260507033016 13 5 0.0 9.7 0.05 0.48 0.48 87 1009.2
20260507031508 14 342 1.6 9.7 0.00 0.43 0.43 85 1009.6
20260507030006 14 351 3.2 20.9 0.00 0.43 0.43 85 1008.9
20260507024503 15 27 4.8 9.7 0.00 0.43 0.43 86 1009.0
20260507023100 15 360 0.0 6.4 0.00 0.43 0.43 86 1009.0
20260507021611 15 350 0.0 3.2 0.00 0.43 0.43 85 1008.9
20260507014600 15 355 0.0 8.0 0.00 0.43 0.43 83 1008.6
20260507013055 15 355 1.6 12.9 0.00 0.43 0.43 83 1008.9
20260507011558 16 360 3.2 12.9 0.00 0.43 0.43 83 1008.8
20260507010056 16 5 0.0 9.7 0.00 0.43 0.43 85 1009.1
20260507004554 17 45 1.6 12.9 0.03 0.43 0.43 86 1008.8
20260507003050 18 355 0.0 4.8 0.03 0.43 0.43 87 1008.4
20260507001550 18 175 0.0 0.0 0.03 0.43 0.43 86 1008.0
20260507000053 18 175 0.0 1.6 0.03 0.43 0.43 84 1007.9
20260506234605 18 175 0.0 4.8 0.00 0.41 0.41 83 1007.4
20260506233046 18 176 0.0 6.4 0.00 0.41 0.41 82 1007.1
20260506231546 19 178 0.0 3.2 0.00 0.41 0.41 82 1007.0
20260506230045 19 177 1.6 4.8 0.00 0.41 0.41 81 1007.1
20260506224548 19 187 0.0 6.4 0.00 0.41 0.41 81 1007.0
20260506223048 19 222 0.0 6.4 0.00 0.41 0.41 82 1007.0
20260506221542 19 150 0.0 4.8 0.00 0.41 0.41 83 1007.0
20260506220042 18 175 0.0 4.8 0.00 0.41 0.41 82 1007.1
20260506214543 18 175 1.6 4.8 0.00 0.41 0.41 82 1006.9
20260506213039 18 215 1.6 8.0 0.00 0.41 0.41 81 1006.9
20260506211538 19 136 1.6 6.4 0.00 0.41 0.41 81 1006.6
20260506210039 19 195 3.2 6.4 0.00 0.41 0.41 81 1006.4
20260506204549 19 159 4.8 8.0 0.00 0.41 0.41 80 1006.3
20260506203034 19 161 1.6 9.7 0.00 0.41 0.41 81 1006.5
20260506201536 19 169 1.6 8.0 0.00 0.41 0.41 82 1006.4
20260506200035 19 157 1.6 9.7 0.00 0.41 0.41 81 1006.5
20260506194534 19 240 1.6 9.7 0.00 0.41 0.41 81 1006.6
20260506193030 19 146 4.8 9.7 0.00 0.41 0.41 81 1006.5
20260506191529 19 136 3.2 11.3 0.00 0.41 0.41 82 1006.6
20260506190026 18 167 4.8 14.5 0.00 0.41 0.41 82 1006.7
20260506183103 17 165 8.0 14.5 0.00 0.41 0.41 85 1006.9
20260506181559 17 151 3.2 16.1 0.00 0.41 0.41 86 1006.9
20260506180051 17 174 3.2 17.7 0.00 0.41 0.41 87 1007.1
20260506174551 17 123 6.4 24.1 0.00 0.41 0.41 88 1007.2
20260506173055 16 180 6.4 19.3 0.00 0.41 0.41 90 1007.0
20260506171550 16 136 4.8 19.3 0.00 0.41 0.41 92 1007.2
20260506170021 16 177 6.4 17.7 0.00 0.41 0.41 92 1007.1
20260506164521 15 158 8.0 17.7 0.00 0.41 0.41 93 1007.1
20260506163051 15 181 6.4 20.9 0.00 0.41 0.41 93 1007.2
20260506161556 15 132 4.8 22.5 0.00 0.41 0.41 93 1007.3
20260506160046 15 161 8.0 20.9 0.03 0.41 0.41 93 1007.4
20260506154543 15 141 8.0 25.7 0.10 0.41 0.41 93 1007.4
20260506153039 15 142 9.7 22.5 0.10 0.41 0.41 93 1007.2
20260506151553 15 118 6.4 22.5 0.13 0.41 0.41 93 1007.4
20260506150036 15 130 6.4 22.5 0.13 0.38 0.38 92 1007.8
20260506144532 15 144 9.7 17.7 0.08 0.30 0.30 92 1008.2
20260506143044 15 178 4.8 14.5 0.13 0.30 0.30 92 1007.9
20260506143042 15 182 4.8 14.5 0.13 0.30 0.30 92 1007.9
20260506141529 15 166 4.8 22.5 0.13 0.28 0.28 91 1007.8
20260506140035 15 168 6.4 14.5 0.13 0.25 0.25 91 1007.7
20260506134524 15 166 4.8 17.7 0.15 0.23 0.23 90 1008.0
20260506133024 15 126 4.8 11.3 0.13 0.18 0.18 89 1008.4
20260506131525 15 207 3.2 16.1 0.15 0.15 0.15 88 1008.2
20260506130017 15 146 1.6 12.9 0.13 0.13 0.13 86 1008.1
20260506124544 16 146 0.0 8.0 0.08 0.08 0.08 85 1008.0
20260506123042 16 169 1.6 11.3 0.05 0.05 0.05 83 1008.1
20260506121537 16 167 1.6 14.5 0.00 0.00 0.00 81 1008.3
20260506120038 16 216 1.6 14.5 0.00 0.00 0.00 79 1008.5
20260506114542 17 120 1.6 9.7 0.00 0.00 0.00 78 1008.4
20260506113133 17 156 3.2 11.3 0.00 0.00 0.00 77 1008.2
20260506111501 17 115 1.6 19.3 0.00 0.00 0.00 76 1007.9
20260506110104 17 175 6.4 14.5 0.00 0.00 0.00 74 1007.8
20260506104613 17 148 3.2 16.1 0.00 0.00 0.00 73 1007.6
20260506103052 17 166 1.6 17.7 0.00 0.00 0.00 72 1007.3
20260506101556 17 117 8.0 19.3 0.00 0.00 0.00 71 1007.3